sat.trackr.live / text

‹ back to catalog

STARLINK-33799

NORAD 63447 · 2025-069Q

PAYLOAD ACTIVE UNKNOWN

§ Identity

Operator
Country
US
Launch date
2025-04-04
Launch site
AFWTR
Launch vehicle
Mass (kg)
RCS (m²)

Purposes: comms

External: N2YO · Heavens-Above · Gunter

§ Orbital elements

Epoch: 2026-05-24T23:53:33.819648Z

Period
94.10 min
Inclination
53.1591°
Eccentricity
0.0001422
Mean motion
15.30205687 rev/d
Perigee alt
474.2 km
Apogee alt
476.2 km
Semi-major
6,853.3 km
B*
4.0833e-4
RAAN
148.3144°
Arg perigee
77.3516°
Mean anomaly
282.7644°
Rev number
6,497

§ Raw data

STARLINK-337991 63447U 25069Q   26144.99553032  .00011756  00000+0  40833-3 0  99992 63447  53.1591 148.3144 0001422  77.3516 282.7644 15.30205687 64979

JSON: /api/v1/satellites/63447 · /tle

For live sub-satellite position, see the globe view (requires WebGL).

§ Visibility from observer

Set your observer location to see the next 7 days of passes ≥ 10°. The values pass through the URL so the page stays shareable.

No JS? Fill the form by hand. The geolocation button needs JavaScript.